| time (UTC) | temp F | wind direction | speed knots | gust knots | rain 1hr in | rain 24hr in | rain mn in | humidity % | barometer mb |
| 20260504204003 | 67 | 358 | 3.5 | 7.8 | 0.00 | 0.00 | 0.00 | 50 | 1008.9 |
| 20260504203004 | 67 | 201 | 6.1 | 12.2 | 0.00 | 0.00 | 0.00 | 51 | 1009.0 |
| 20260504202503 | 67 | 209 | 2.6 | 10.4 | 0.00 | 0.00 | 0.00 | 51 | 1009.1 |
| 20260504202003 | 66 | 154 | 4.3 | 12.2 | 0.00 | 0.00 | 0.00 | 51 | 1009.0 |
| 20260504201504 | 66 | 184 | 3.5 | 13.9 | 0.00 | 0.00 | 0.00 | 51 | 1009.2 |
| 20260504200503 | 67 | 196 | 5.2 | 10.4 | 0.00 | 0.00 | 0.00 | 49 | 1009.1 |
| 20260504195503 | 67 | 147 | 7.8 | 17.4 | 0.00 | 0.00 | 0.00 | 50 | 1009.3 |
| 20260504195004 | 67 | 220 | 3.5 | 11.3 | 0.00 | 0.00 | 0.00 | 50 | 1009.3 |
| 20260504194504 | 67 | 177 | 5.2 | 17.4 | 0.00 | 0.00 | 0.00 | 49 | 1009.5 |
| 20260504194003 | 67 | 261 | 4.3 | 15.6 | 0.00 | 0.00 | 0.00 | 48 | 1009.5 |
| 20260504192504 | 67 | 194 | 4.3 | 8.7 | 0.00 | 0.00 | 0.00 | 48 | 1009.6 |
| 20260504192004 | 68 | 237 | 4.3 | 12.2 | 0.00 | 0.00 | 0.00 | 48 | 1009.6 |
| 20260504191503 | 68 | 188 | 6.1 | 12.2 | 0.00 | 0.00 | 0.00 | 47 | 1009.8 |
| 20260504191004 | 67 | 162 | 4.3 | 10.4 | 0.00 | 0.00 | 0.00 | 49 | 1009.8 |
| 20260504190504 | 67 | 193 | 7.8 | 17.4 | 0.00 | 0.00 | 0.00 | 47 | 1009.8 |
| 20260504190004 | 67 | 125 | 2.6 | 7.8 | 0.00 | 0.00 | 0.00 | 49 | 1009.9 |
| 20260504185503 | 67 | 209 | 0.9 | 13.9 | 0.00 | 0.00 | 0.00 | 51 | 1010.0 |
| 20260504185004 | 67 | 201 | 5.2 | 13.0 | 0.00 | 0.00 | 0.00 | 48 | 1010.0 |
| 20260504184503 | 67 | 174 | 6.1 | 14.8 | 0.00 | 0.00 | 0.00 | 49 | 1010.1 |
| 20260504184004 | 66 | 171 | 5.2 | 11.3 | 0.00 | 0.00 | 0.00 | 49 | 1010.2 |
| 20260504183004 | 66 | 192 | 5.2 | 10.4 | 0.00 | 0.00 | 0.00 | 48 | 1010.3 |
| 20260504182504 | 67 | 248 | 4.3 | 15.6 | 0.00 | 0.00 | 0.00 | 46 | 1010.1 |
| 20260504182003 | 67 | 257 | 4.3 | 13.0 | 0.00 | 0.00 | 0.00 | 48 | 1010.3 |
| 20260504181504 | 67 | 242 | 3.5 | 8.7 | 0.00 | 0.00 | 0.00 | 47 | 1010.3 |
| 20260504181004 | 67 | 195 | 2.6 | 14.8 | 0.00 | 0.00 | 0.00 | 46 | 1010.4 |
| 20260504180503 | 68 | 255 | 5.2 | 14.8 | 0.00 | 0.00 | 0.00 | 45 | 1010.4 |
| 20260504180003 | 68 | 200 | 5.2 | 12.2 | 0.00 | 0.00 | 0.00 | 46 | 1010.4 |
| 20260504175504 | 67 | 224 | 5.2 | 10.4 | 0.00 | 0.00 | 0.00 | 46 | 1010.5 |
| 20260504175003 | 67 | 216 | 4.3 | 15.6 | 0.00 | 0.00 | 0.00 | 46 | 1010.5 |
| 20260504174504 | 67 | 213 | 2.6 | 10.4 | 0.00 | 0.00 | 0.00 | 46 | 1010.6 |
| 20260504174004 | 66 | 217 | 5.2 | 14.8 | 0.00 | 0.00 | 0.00 | 48 | 1010.8 |
| 20260504173504 | 67 | 208 | 7.0 | 14.8 | 0.00 | 0.00 | 0.00 | 46 | 1010.8 |
| 20260504172004 | 66 | 207 | 4.3 | 17.4 | 0.00 | 0.00 | 0.00 | 48 | 1011.1 |
| 20260504171003 | 65 | 241 | 4.3 | 8.7 | 0.00 | 0.00 | 0.00 | 47 | 1011.0 |
| 20260504170504 | 66 | 230 | 4.3 | 13.9 | 0.00 | 0.00 | 0.00 | 46 | 1011.0 |
| 20260504151004 | 62 | 235 | 5.2 | 13.9 | 0.00 | 0.00 | 0.00 | 49 | 1011.9 |
| 20260504150504 | 61 | 230 | 3.5 | 10.4 | 0.00 | 0.00 | 0.00 | 52 | 1011.9 |
| 20260504140504 | 57 | 204 | 3.5 | 13.0 | 0.00 | 0.00 | 0.00 | 54 | 1012.4 |
| 20260504130504 | 52 | 217 | 3.5 | 10.4 | 0.00 | 0.00 | 0.00 | 59 | 1012.6 |
| 20260504110503 | 46 | 191 | 5.2 | 10.4 | 0.00 | 0.00 | 0.00 | 64 | 1012.6 |
| 20260504100504 | 44 | 201 | 2.6 | 7.8 | 0.00 | 0.00 | 0.00 | 66 | 1012.7 |
| 20260504082004 | 45 | 218 | 1.7 | 2.6 | 0.00 | 0.00 | 0.00 | 63 | 1013.2 |
| 20260504081504 | 45 | 191 | 1.7 | 6.1 | 0.00 | 0.00 | 0.00 | 62 | 1013.2 |
| 20260504081004 | 45 | 134 | 1.7 | 5.2 | 0.00 | 0.00 | 0.00 | 63 | 1013.3 |
| 20260504080504 | 45 | 208 | 1.7 | 8.7 | 0.00 | 0.00 | 0.00 | 63 | 1013.4 |
| 20260504050504 | 41 | 227 | 0.9 | 2.6 | 0.00 | 0.00 | 0.00 | 72 | 1014.1 |
| 20260504050003 | 41 | 214 | 1.7 | 2.6 | 0.00 | 0.00 | 0.00 | 71 | 1014.1 |
| 20260504045504 | 41 | 194 | 0.9 | 2.6 | 0.00 | 0.00 | 0.00 | 72 | 1014.1 |
| 20260504045004 | 42 | 215 | 0.9 | 5.2 | 0.00 | 0.00 | 0.00 | 71 | 1014.1 |
| 20260504044504 | 42 | 202 | 0.9 | 2.6 | 0.00 | 0.00 | 0.00 | 71 | 1014.1 |
| 20260504044004 | 43 | 174 | 0.9 | 2.6 | 0.00 | 0.00 | 0.00 | 70 | 1014.1 |
| 20260504043503 | 43 | 204 | 0.9 | 2.6 | 0.00 | 0.00 | 0.00 | 67 | 1014.1 |
| 20260504043005 | 43 | 195 | 0.9 | 2.6 | 0.00 | 0.00 | 0.00 | 67 | 1014.1 |
| 20260504042503 | 44 | 201 | 1.7 | 6.1 | 0.00 | 0.00 | 0.00 | 64 | 1014.0 |
| 20260504042003 | 44 | 211 | 1.7 | 4.3 | 0.00 | 0.00 | 0.00 | 63 | 1014.1 |
| 20260504041503 | 44 | 198 | 1.7 | 5.2 | 0.00 | 0.00 | 0.00 | 63 | 1014.1 |
| 20260504041004 | 45 | 188 | 0.9 | 2.6 | 0.00 | 0.00 | 0.00 | 61 | 1014.0 |
| 20260504040503 | 45 | 213 | 0.9 | 5.2 | 0.00 | 0.00 | 0.00 | 61 | 1014.0 |
| 20260504040004 | 45 | 225 | 1.7 | 6.1 | 0.00 | 0.00 | 0.00 | 61 | 1014.0 |
| 20260504035503 | 45 | 269 | 0.9 | 5.2 | 0.00 | 0.00 | 0.00 | 60 | 1014.1 |
| 20260504035004 | 45 | 203 | 1.7 | 7.0 | 0.00 | 0.00 | 0.00 | 61 | 1014.1 |
| 20260504034503 | 44 | 196 | 0.9 | 5.2 | 0.00 | 0.00 | 0.00 | 61 | 1014.1 |
| 20260504034003 | 44 | 215 | 1.7 | 7.8 | 0.00 | 0.00 | 0.00 | 62 | 1014.0 |
| 20260504033504 | 45 | 222 | 1.7 | 5.2 | 0.00 | 0.00 | 0.00 | 62 | 1014.1 |
| 20260504032503 | 45 | 233 | 0.9 | 4.3 | 0.00 | 0.00 | 0.00 | 60 | 1014.1 |
| 20260504032004 | 45 | 241 | 1.7 | 5.2 | 0.00 | 0.00 | 0.00 | 60 | 1014.1 |
| 20260504031504 | 45 | 209 | 2.6 | 7.0 | 0.00 | 0.00 | 0.00 | 60 | 1014.1 |
| 20260504030504 | 45 | 225 | 0.0 | 5.2 | 0.00 | 0.00 | 0.00 | 61 | 1014.2 |
| 20260504030004 | 44 | 234 | 1.7 | 7.8 | 0.00 | 0.00 | 0.00 | 61 | 1014.1 |
| 20260504025004 | 44 | 188 | 0.9 | 2.6 | 0.00 | 0.00 | 0.00 | 64 | 1014.2 |
| 20260504024503 | 44 | 189 | 0.9 | 2.6 | 0.00 | 0.00 | 0.00 | 64 | 1014.3 |
| 20260504024004 | 45 | 210 | 0.9 | 4.3 | 0.00 | 0.00 | 0.00 | 63 | 1014.3 |
| 20260504023503 | 45 | 213 | 1.7 | 5.2 | 0.00 | 0.00 | 0.00 | 62 | 1014.3 |
| 20260504022503 | 45 | 220 | 0.9 | 5.2 | 0.00 | 0.00 | 0.00 | 61 | 1014.3 |
| 20260504022003 | 45 | 218 | 0.9 | 4.3 | 0.00 | 0.00 | 0.00 | 63 | 1014.4 |
| 20260504021504 | 45 | 223 | 0.9 | 2.6 | 0.00 | 0.00 | 0.00 | 62 | 1014.4 |
| 20260504021004 | 44 | 206 | 1.7 | 5.2 | 0.00 | 0.00 | 0.00 | 62 | 1014.3 |
| 20260504020503 | 45 | 195 | 0.9 | 2.6 | 0.00 | 0.00 | 0.00 | 64 | 1014.2 |
| 20260504020003 | 45 | 225 | 0.9 | 2.6 | 0.00 | 0.00 | 0.00 | 63 | 1014.3 |
| 20260504015504 | 45 | 211 | 0.9 | 2.6 | 0.00 | 0.00 | 0.00 | 64 | 1014.3 |
| 20260504015004 | 45 | 193 | 0.9 | 2.6 | 0.00 | 0.00 | 0.00 | 62 | 1014.2 |
| 20260504014504 | 45 | 170 | 1.7 | 5.2 | 0.00 | 0.00 | 0.00 | 61 | 1014.3 |
| 20260504014004 | 45 | 202 | 0.9 | 2.6 | 0.00 | 0.00 | 0.00 | 62 | 1014.3 |
| 20260504013503 | 46 | 223 | 1.7 | 2.6 | 0.00 | 0.00 | 0.00 | 61 | 1014.1 |
| 20260504013004 | 46 | 207 | 0.9 | 2.6 | 0.00 | 0.00 | 0.00 | 60 | 1014.1 |
| 20260504012003 | 46 | 216 | 1.7 | 5.2 | 0.00 | 0.00 | 0.00 | 59 | 1014.1 |
| 20260504011503 | 47 | 224 | 0.9 | 6.1 | 0.00 | 0.00 | 0.00 | 56 | 1014.0 |
| 20260504010503 | 47 | 186 | 0.9 | 2.6 | 0.00 | 0.00 | 0.00 | 55 | 1013.9 |
| 20260504010004 | 48 | 213 | 0.9 | 4.3 | 0.00 | 0.00 | 0.00 | 55 | 1014.0 |
| 20260504005503 | 48 | 244 | 1.7 | 7.0 | 0.00 | 0.00 | 0.00 | 54 | 1014.0 |
| 20260504005004 | 48 | 222 | 0.9 | 5.2 | 0.00 | 0.00 | 0.00 | 53 | 1014.0 |
| 20260504003503 | 49 | 208 | 1.7 | 6.1 | 0.00 | 0.00 | 0.00 | 52 | 1013.9 |
| 20260504003004 | 49 | 321 | 0.9 | 5.2 | 0.00 | 0.00 | 0.00 | 51 | 1014.0 |
| 20260504002504 | 49 | 226 | 1.7 | 7.0 | 0.00 | 0.00 | 0.00 | 52 | 1014.0 |
| 20260504002003 | 49 | 259 | 1.7 | 7.8 | 0.00 | 0.00 | 0.00 | 50 | 1013.9 |
| 20260504001504 | 50 | 265 | 1.7 | 13.0 | 0.00 | 0.00 | 0.00 | 50 | 1013.8 |
| 20260504001003 | 50 | 238 | 2.6 | 7.8 | 0.00 | 0.00 | 0.00 | 50 | 1013.8 |
| 20260504000503 | 50 | 236 | 3.5 | 8.7 | 0.00 | 0.00 | 0.00 | 49 | 1013.8 |
| 20260504000005 | 50 | 295 | 1.7 | 7.8 | 0.00 | 0.00 | 0.00 | 49 | 1013.8 |
| 20260503235503 | 50 | 262 | 0.9 | 7.8 | 0.00 | 0.00 | 0.00 | 49 | 1013.7 |
| 20260503235004 | 50 | 192 | 1.7 | 7.8 | 0.00 | 0.00 | 0.00 | 49 | 1013.7 |
| 20260503234505 | 51 | 256 | 2.6 | 5.2 | 0.00 | 0.00 | 0.00 | 48 | 1013.7 |
| 20260503234004 | 51 | 222 | 3.5 | 10.4 | 0.00 | 0.00 | 0.00 | 48 | 1013.8 |
| 20260503233504 | 51 | 251 | 2.6 | 7.8 | 0.00 | 0.00 | 0.00 | 48 | 1013.9 |
| 20260503233005 | 51 | 233 | 2.6 | 11.3 | 0.00 | 0.00 | 0.00 | 48 | 1013.7 |
| 20260503232504 | 51 | 248 | 0.9 | 5.2 | 0.00 | 0.00 | 0.00 | 47 | 1013.7 |
| 20260503232004 | 51 | 243 | 4.3 | 13.9 | 0.00 | 0.00 | 0.00 | 47 | 1013.7 |
| 20260503231504 | 52 | 268 | 2.6 | 7.0 | 0.00 | 0.00 | 0.00 | 47 | 1013.8 |
| 20260503231003 | 52 | 238 | 2.6 | 10.4 | 0.00 | 0.00 | 0.00 | 47 | 1013.7 |
| 20260503230504 | 52 | 236 | 1.7 | 6.1 | 0.00 | 0.00 | 0.00 | 46 | 1013.7 |
| 20260503230003 | 52 | 289 | 0.9 | 6.1 | 0.00 | 0.00 | 0.00 | 47 | 1013.7 |
| 20260503225004 | 52 | 282 | 2.6 | 10.4 | 0.00 | 0.00 | 0.00 | 46 | 1013.7 |
| 20260503224504 | 52 | 291 | 1.7 | 10.4 | 0.00 | 0.00 | 0.00 | 46 | 1013.7 |
| 20260503224003 | 52 | 291 | 3.5 | 10.4 | 0.00 | 0.00 | 0.00 | 46 | 1013.7 |
| 20260503223503 | 52 | 295 | 5.2 | 12.2 | 0.00 | 0.00 | 0.00 | 45 | 1013.8 |
| 20260503223004 | 53 | 253 | 3.5 | 10.4 | 0.00 | 0.00 | 0.00 | 45 | 1013.7 |
| 20260503222504 | 53 | 243 | 4.3 | 8.7 | 0.00 | 0.00 | 0.00 | 45 | 1013.8 |
| 20260503222003 | 53 | 254 | 4.3 | 11.3 | 0.00 | 0.00 | 0.00 | 45 | 1014.0 |
| 20260503221504 | 53 | 284 | 4.3 | 13.9 | 0.00 | 0.00 | 0.00 | 44 | 1014.0 |
| 20260503220004 | 53 | 302 | 5.2 | 12.2 | 0.00 | 0.00 | 0.00 | 45 | 1013.9 |
| 20260503215504 | 53 | 291 | 3.5 | 13.9 | 0.00 | 0.00 | 0.00 | 44 | 1014.0 |
| 20260503215004 | 53 | 256 | 3.5 | 10.4 | 0.00 | 0.00 | 0.00 | 45 | 1013.9 |
| 20260503214504 | 53 | 215 | 2.6 | 10.4 | 0.00 | 0.00 | 0.00 | 46 | 1013.9 |
| 20260503214003 | 53 | 266 | 2.6 | 7.8 | 0.00 | 0.00 | 0.00 | 45 | 1013.9 |
| 20260503213504 | 53 | 251 | 1.7 | 7.0 | 0.00 | 0.00 | 0.00 | 44 | 1013.9 |
| 20260503213005 | 53 | 240 | 3.5 | 10.4 | 0.00 | 0.01 | 0.00 | 43 | 1014.0 |
| 20260503212503 | 53 | 253 | 2.6 | 7.8 | 0.00 | 0.01 | 0.00 | 47 | 1013.9 |
| 20260503212004 | 52 | 282 | 0.9 | 7.0 | 0.00 | 0.01 | 0.00 | 46 | 1014.0 |
| 20260503211504 | 52 | 249 | 2.6 | 10.4 | 0.00 | 0.01 | 0.00 | 45 | 1014.1 |
| 20260503210503 | 53 | 259 | 3.5 | 11.3 | 0.00 | 0.01 | 0.00 | 44 | 1013.9 |
| 20260503210004 | 53 | 280 | 5.2 | 12.2 | 0.00 | 0.02 | 0.00 | 45 | 1014.0 |
| 20260503205504 | 53 | 283 | 4.3 | 13.9 | 0.00 | 0.02 | 0.00 | 46 | 1013.9 |
| 20260503205003 | 52 | 253 | 6.1 | 17.4 | 0.00 | 0.02 | 0.00 | 45 | 1013.9 |